Tracking 30995 objects as of 5-Jul-2025
HD Live streaming from Space Station
objects crossing your sky now

BLOCK DM-SL DEB

Track BLOCK DM-SL DEB now!


NORAD ID: 45041
Int'l Code: 2019-095C
Perigee: 33,207.4 km
Apogee: 36,871.6 km
Inclination: 4.5 °
Period: 1,397.7 minutes
Semi major axis: 41410 km
RCS: Unknown
Launch date: December 24, 2019
Source: Commonwealth of Independent States (former USSR) (CIS)
Launch site: TYURATAM MISSILE AND SPACE COMPLEX (TTMTR)

Note: This is SATELLITE DEBRIS
Your satellite tracking list
FENGYUN 1C DEB
Track 1 satellite(s)




NASA's NSSDC Master Catalog

Two Line Element Set (TLE):
1 45041U 19095C   25186.41247323 -.00000006  00000-0  00000-0 0  9993
2 45041   4.4965  77.8715 0442426  18.3498 343.0098  1.03023692 20762
Source of the keplerian elements: AFSPC